Regional Weather Roundup
Issued by NWS Northern Indiana

Home | Current Version | Previous Version | Graphics & Text | Print | Product List | Glossary On
Versions: 1 2 3 4 5 6 7 8 9 10 11 12 13 14 15 16 17 18 19 20 21 22 23 24 25 26 27 28 29 30 31 32 33 34 35 36 37 38 39 40 41 42 43 44 45 46 47 48 49 50
000
ASUS43 KIWX 250510
RWRIWX

KIWX WEATHER ROUNDUP
NATIONAL WEATHER SERVICE NORTHERN INDIANA
100 AM EDT THU AUG 25 2016

NOTE: "FAIR" INDICATES FEW OR NO CLOUDS BELOW 12,000 FEET WITH NO
SIGNIFICANT WEATHER AND/OR OBSTRUCTIONS TO VISIBILITY.

* THESE STATIONS ARE NOT UNDER NWS QUALITY CONTROL. THEY ALSO MAY NOT
  REPORT WEATHER SUCH AS PRECIPITATION OR FOG.

INZ001>027-250600-
NORTHERN INDIANA

CITY           SKY/WX    TMP DP  RH WIND       PRES   REMARKS
GARY*          CLOUDY    74  73  94 SW3       29.99R
VALPARAISO     CLEAR     71  69  93 SW3       30.00S
MICHIGAN CITY* CLEAR     72  72 100 MISG      29.99S
LAPORTE*       CLEAR    N/A N/A N/A SW6       30.00S
KNOX*          CLEAR     70  54  56 SW6       29.99S
SOUTH BEND     CLEAR     72  70  93 SW8       29.99S
GOSHEN         CLEAR     72  68  87 SW6       30.00R
MONTICELLO*    PTCLDY    69  65  86 CALM      30.00S
LOGANSPORT*    CLOUDY    68  66  94 CALM      30.03S
ROCHESTER*     CLEAR     72  72 100 SW3       30.01F
WARSAW*        CLEAR     72  72 100 CALM      30.01S
ANGOLA*        PTCLDY    73  66  78 W6        30.00R
FORT WAYNE     PTCLDY    71  69  93 W5        30.02R
HUNTINGTON*    CLEAR    N/A N/A N/A SW3       30.02R
PERU/GRISSOM   CLOUDY    70  70 100 S3        30.01S
MARION*        MOCLDY    72  72 100 SW5       30.04S

$$
INZ028>050-250600-
CENTRAL INDIANA

CITY           SKY/WX    TMP DP  RH WIND       PRES   REMARKS
LAFAYETTE      CLOUDY    71  71 100 CALM      30.00S FOG
MUNCIE*        MOCLDY    77  74  90 SW3       30.04S
INDIANAPOLIS   CLOUDY    78  74  87 S7        30.03S

$$
MIZ043>046-050>051-056>058-064>065-071>073-077>080-250600-
SOUTHWEST LOWER MICHIGAN

CITY           SKY/WX    TMP DP  RH WIND       PRES   REMARKS
BATTLE CREEK   CLEAR     70  70 100 SW6       29.98R
BENTON HARBOR  PTCLDY    74  71  91 S5        29.96S
COLDWATER*     CLEAR     71  71  99 SW6       29.99R
HILLSDALE*     CLEAR     71  69  93 SW5       29.99R
HOLLAND        PTCLDY    71  70  96 CALM      29.95S FOG
GRAND RAPIDS   MOCLDY    74  70  87 SW5       29.94F
KALAMAZOO      PTCLDY    72  69  90 SW5       29.97R
STURGIS*       MOCLDY    71  69  93 SW3       29.99R
THREE RIVERS*  FAIR      71  71  98 S3        29.98S

$$
OHZ001>008-015>018-024>025-250600-
NORTHWEST OHIO

CITY           SKY/WX    TMP DP  RH WIND       PRES   REMARKS
WAUSEON*       FAIR      72  72 100 SW8       29.99R
DEFIANCE       PTCLDY    73  71  93 SW6       30.00R
FINDLAY        CLOUDY    75  71  87 SW8       29.99R
TOLEDO EXPRESS PTCLDY    72  72 100 SW8       29.98R
TOLEDO METCALF CLEAR     73  72  96 SW6       29.98R
LIMA           CLOUDY    74  73  97 SW10      30.02S

$$
AND FOR LAKE MICHIGAN COASTAL AND OPEN LAKE BUOY OBSERVATIONS

STATION/POSITION TEMP    WIND        PRES    VSBY  WAVE
                 AIR SEA DIR/SP/G                  HT/PER
                 (F)     (DEG/KT/KT) (MB)    (MI)  (FT/S)
CALUMET HARBOR    76     210/  5/  8 1014.6S
MICHIGAN CITY     76     190/ 11/ 12   N/A
BURNS HARBOR      76     200/  9/ 15 1015.6F
SAINT JOSEPH      76     210/ 10/ 12 1015.2R
SOUTH LAKE BUOY   76 75  190/  8/ 10 1012.9          1
4 MI NW BRIDGMAN  76 75  230/ 12/ 14 1014.2F         1/ 3
MICHIGAN CITY     75 74  220/ 10/ 12   N/A           1/ 2

$$
&&




USA.gov is the U.S. government's official web portal to all federal, state and local government web resources and services.